Погода в Знаменке

Россия / Республика Хакасия     54°21′29″N   90°58′41″E
темп.,
°C
ветер,
м/с
пор.,
м/с
влажн.,
%
обл.,
%
осадки,
мм/ч
давл.,
гПа
погр.,
м
13 апреля, вт
вт1301:00+4ююв1167100 0.0 102310
04:00+3юв1169100 0.1 102211
07:00+2ссз2269100 0.2 102347
10:00+2зсз61091100 0.6 1025673
13:00+3ссз6876100 0.8 1026937
16:00+5ссз575276 0.1 10251518
19:00+3с356280 0.1 1026865
22:00+1сз368113 0.1 1029540
14 апреля, ср
ср1401:000з51168100 0.1 1029519
04:00+1з71362100 0.0 1027738
07:000з51185100 0.3 1029757
10:00+3зсз7115594 0.1 10281614
13:00+5з81147100 0.3 10261816
16:00+5з81451100 0.0 10241548
19:00+4з81656100 0.4 10211388
22:00+3з101860100 0.0 10201141
15 апреля, чт
чт1501:00+2зсз10176898 0.0 10211040
04:00+1зсз71494100 0.1 1022839
07:00+1зсз51196100 0.7 1025550
10:00+2сз259796 1.2 1026347
13:00+3ссв2387100 1.5 1026439
16:00+3в2193100 0.2 1025404
19:00+4в228678 0.2 1024144
22:00+2ююв119198 0.0 102422
16 апреля, пт
пт1601:00+3ююв229188 0.0 102334
04:00+3ю228984 0.0 102135
07:00+3ю2386100 0.0 102076
10:00+5юв1274100 0.0 1020144
13:00+9юв135348 0.0 1017884
16:00+11всв125074 0.0 1015849
19:00+9св226589 0.0 101434
22:00+6сз117516 0.0 101411
17 апреля, сб
сб1701:00+4ю11805 0.0 101310
04:00+4ю228110 0.0 101211
07:00+3ююв118499 0.0 101214
10:00+7вюв3372100 0.0 1010428
13:00+10в436139 0.0 1008904
16:00+9св4366100 0.0 1007531
19:00+7св3477100 0.0 1007439
22:00+5с239175 0.0 1008150